Welcome to the New NWS' Forecast!
Most changes are behind the scenes, but click here for differences you might notice.
Latest weather observations around

Emigrant Gap, Blue Canyon Nyack Airport (KBLU)

Using English Units (Switch to International System of Units)
Date/ Time (PDT) Wind (mph) Vis. (mi) Weather Sky Cond. Temp (°F) Rel. Humidity Wind Chill (°F) Heat Index (°F) Pressure Precip. (in)
Air Dwpt 6 hour Altimeter (inHg) Sea level (inHg) 1 hr 3 hr 6 hr
Max Min
Notice The following observation data may not be complete
Oct 21 00:52 Calm 10 Clear CLR   25      %     30.16 29.93      
Oct 20 23:52 N 3 10 Clear CLR 57 26     30%     30.16 29.94      
Oct 20 22:52 NW 3 10 Clear CLR 57 27     31%     30.17 29.95      
Oct 20 21:52 ENE 3 10 Clear CLR 57 28     33%     30.16 29.95      
Oct 20 20:52 ENE 5 10 Clear CLR 56 28     34%     30.16 29.97      
Oct 20 19:52 ENE 3 10 Clear CLR 56 30     37%     30.16 30      
Oct 20 18:52 Calm 10 Clear CLR 58 30     34%     30.16 29.97      
Oct 20 17:52 WSW 3 10 Clear CLR 62 28     27%     30.15 29.94      
Oct 20 16:52 SW 6 10 Clear CLR 64 26     24%     30.15 29.93      
Oct 20 15:52 7 10 Clear CLR 65 25     22%     30.15 29.93      
Oct 20 14:52 W 7 10 Clear CLR 66 24     20%     30.15 29.93      
Oct 20 13:52 WSW 9 10 Clear CLR 66 24     20%     30.17 29.94      
Oct 20 12:52 6 10 Clear CLR 68 23     18%     30.19 29.95      
Oct 20 11:52 Calm 10 Clear CLR 67 19     16%     30.21 29.97      
Oct 20 10:52 S 8 10 Clear CLR 66 18     16%     30.22 29.99      
Oct 20 09:52 6 10 Clear CLR 64 20     18%     30.23        
Oct 20 07:52 6 10 Clear CLR 55 19     24%     30.23 30.04      
Oct 20 06:52 6 10 Clear CLR 58 18     21%     30.23 30.03      
Oct 20 05:52 6 10 Clear CLR 57 18     21%     30.23 30.01      
Oct 20 04:52 ENE 8 10 Clear CLR 60 17     19%     30.23        
Oct 20 03:52 7 10 Clear CLR 59 18     20%     30.23        
Oct 20 02:52 ENE 8 10 Clear CLR 59 18     20%     30.24        
Oct 20 01:52 ENE 11 10 Clear CLR 60 19     20%     30.25        
Oct 20 00:52 ENE 7 10 Clear CLR 60 19     20%     30.25 30.01      
Oct 19 23:52 NE 15 10 Clear CLR 60 19     20%     30.26 30.02      
Oct 19 22:52 ENE 14 10 Clear CLR 60 17     19%     30.26 30.03      
Oct 19 21:52 NE 11 10 Clear CLR 60 16     18%     30.25 30.04      
Oct 19 20:52 NE 13 10 Clear CLR 59 15     18%     30.26        
Oct 19 19:52 E 8 10 Clear CLR 60 17     19%     30.27 30.1      
Oct 19 18:52 6 10 Clear CLR 61 18     19%     30.27 30.09      
Oct 19 17:52 Calm 10 Clear CLR 66 31     27%     30.27 30.06      
Oct 19 16:52 W 7 10 Clear CLR 69 29     22%     30.26 30.03      
Oct 19 15:52 3 10 Clear CLR 72 14     11%   69 30.27        
Oct 19 14:52 Calm 10 Clear CLR 73 15     11%   71 30.28 30.04      
Oct 19 13:52   10 Clear CLR 72 15     11%   69 30.29 30.06      
Oct 19 12:52 3 10 Clear CLR 69 21     16%     30.31 30.09      
Oct 19 11:52 Calm 10 Clear CLR 68 23     18%     30.33 30.12      
Oct 19 10:52 3 10 Clear CLR 67 23     19%     30.34 30.14      
Oct 19 09:52 Calm 10 Clear CLR 63 22     21%     30.34 30.14      
Oct 19 08:52 3 10 Clear CLR 58 20     23%     30.33 30.14      
Oct 19 07:52 NE 8 10 Clear CLR 54 19     25%     30.31        
Oct 19 06:52 ENE 8 10 Clear CLR 54 19     25%     30.3 30.14      
Oct 19 05:52 7 10 Clear CLR 55 18     23%     30.29 30.11      
Oct 19 04:52 6 10 Clear CLR 56 18     22%     30.28 30.08      
Oct 19 03:52 6 10 Clear CLR 57 18     21%     30.28        
Oct 19 02:52 7 10 Clear CLR 57 19     23%     30.28        
Oct 19 01:52 5 10 Clear CLR 55 19     24%     30.29 30.09      
Oct 19 00:52 3 10 Clear   56 20     24%     30.29 30.1      
Oct 18 23:52 ENE 3 10 Clear CLR 55 20     25%     30.29 30.11      
Oct 18 22:52 ENE 3 10 Clear CLR 55 20     25%     30.29 30.11      
Oct 18 21:52 6 10 Clear CLR 57 24     28%     30.28 30.1      
Oct 18 20:52 6 10 Clear CLR 59 26     28%     30.28 30.09      
Oct 18 19:52 NE 6 10 Clear CLR 57 31     37%     30.27 30.11      
Oct 18 18:52 NE 3 10 Clear CLR 55 31     40%     30.26 30.12      
Oct 18 17:52 W 3 10 Clear CLR 61 31     32%     30.25 30.08      
Oct 18 16:52 W 6 10 Clear CLR 63 30     29%     30.25 30.08      
Oct 18 15:52 5 10 Clear CLR 65 30     27%     30.25 30.06      
Oct 18 14:52 5 10 Clear CLR 64 28     26%     30.26 30.08      
Oct 18 13:52 W 8 10 Clear CLR 64 26     24%     30.27 30.09      
Oct 18 12:52 6 10 Clear CLR 64 26     24%     30.29 30.1      
Oct 18 11:52 W 7 10 Clear CLR 61 25     25%     30.3 30.12      
Oct 18 10:52 W 6 10 Clear CLR 60 20     21%     30.3 30.12      
Oct 18 09:52 S 3 10 Clear CLR 58 25     28%     30.3 30.12      
Oct 18 08:52 Calm 10 Clear CLR 56 23     28%     30.29 30.12      
Oct 18 07:52 Calm 10 Clear CLR 53 22     29%     30.27 30.12      
Oct 18 06:52 NE 3 10 Clear CLR 51 20     29%     30.25 30.11      
Notice The following observation data may not be complete
Oct 18 05:52 N 5 10 Clear CLR   22      %     30.26 30.09      
Oct 18 04:52 SE 3 10 Clear CLR 51 23     33%     30.24 30.08      
Notice The following observation data may not be complete
Oct 18 03:52 Calm 10 Clear CLR   23      %     30.24 30.06      
Oct 18 02:52 ENE 3 10 Clear CLR 51 24     35%     30.24 30.07      
Oct 18 01:52 Calm 10 Clear CLR 52 22     31%     30.24 30.06      
Oct 18 00:52 NE 6 10 Clear CLR 53 22     29%     30.23 30.05      
Oct 17 23:52 N 3 10 Clear CLR 55 25     31%     30.24 30.05      
Oct 17 22:52 Calm 10 Clear CLR 56 26     31%     30.24 30.05      
Oct 17 21:52 NE 5 10 Clear CLR 56 25     30%     30.23 30.05      
Oct 17 20:52 NNE 3 10 Clear CLR 55 25     31%     30.23 30.06      
Oct 17 19:52 Calm 10 Clear CLR 55 24     30%     30.23 30.08      
Oct 17 18:52 Calm 10 Clear   55 24     30%     30.22 30.07      
Oct 17 17:52 WSW 5 10 Clear CLR 59 24     26%     30.21 30.04      
Oct 17 16:52 SW 7 10 Clear CLR 61 25     25%     30.2 30.04      
Oct 17 15:52 SSW 8 10 Clear CLR 63 24     23%     30.21 30.03      
Oct 17 14:52 SW 7 10 Clear CLR 63 26     24%     30.2 30.03      
Oct 17 13:52 6 10 Clear CLR 63 23     22%     30.22 30.04      
Oct 17 12:52 W 7 10 Clear CLR 63 23     22%     30.24 30.07      
Oct 17 11:52 WSW 7 10 Clear CLR 62 21     20%     30.25 30.08      
Oct 17 10:52 W 6 10 Clear CLR 61 20     20%     30.26 30.08      
Oct 17 09:52 WNW 3 10 Clear CLR 60 15     17%     30.26 30.09      
Notice The following observation data may not be complete
Oct 17 08:52 Calm 10 Clear CLR   20      %     30.26 30.09      
Oct 17 07:52 5 10 Clear CLR 53 16     23%     30.25 30.09      
Oct 17 06:52 NE 7 10 Clear CLR 52 16     24%     30.24        
Oct 17 05:52 6 10 Clear CLR 52 17     25%     30.23 30.05      
Oct 17 04:52 6 10 Clear CLR 51 16     24%     30.23 30.04      
Oct 17 03:52 NE 8 10 Clear CLR 51 16     24%     30.23        
Oct 17 02:52 NE 8 10 Clear CLR 51 16     24%     30.23        
Oct 17 01:52 ENE 6 10 Clear CLR 50 16     26%     30.23        
Oct 16 23:52 E 9 10 Clear CLR 52 13     21%     30.23        
Oct 16 22:52 7 10 Clear CLR 54 11     18%     30.23 30.05      
Oct 16 20:52 6 10 Clear CLR 54 13     19%     30.23 30.07      
Oct 16 19:52 ENE 9 10 Clear CLR 56 13     18%     30.23 30.08      
Oct 16 18:52 6 10 Clear CLR 58 15     18%     30.22 30.07      
Oct 16 17:52 NE 6 10 Clear CLR 64 14     14%     30.22 30.04      
Oct 16 16:52 3 10 Clear   66 13     13%     30.22 30.03      
Oct 16 15:52 3 10 Clear CLR 67 13     12%     30.22 30.02      
Oct 16 14:52 5 10 Clear CLR 67 13     12%     30.23 30.03      
Oct 16 13:52 6 10 Clear CLR 66 12     12%     30.24 30.04      
Oct 16 12:52 6 10 Clear CLR 66 10     11%     30.26 30.07      
Oct 16 11:52 ENE 8 10 Clear CLR 63 7     11%     30.27 30.09      
Oct 16 10:52 3 10 Clear CLR 61 11     14%     30.27 30.1      
Oct 16 09:52 Calm 10 Clear CLR 59 13     16%     30.27 30.1      
Oct 16 08:52 Calm 10 Clear CLR 55 11     17%     30.26 30.11      
Oct 16 07:52 ENE 9 10 Clear CLR 52 11     19%     30.24        
Oct 16 06:52 ENE 8 10 Clear CLR 52 12     20%     30.23        
Oct 16 05:52 ENE 8 10 Clear CLR 52 10     18%     30.24        
Oct 16 04:52 ENE 9 10 Clear CLR 52 9     17%     30.23        
Oct 16 03:52 E 9 10 Clear CLR 52 11     19%     30.23        
Oct 16 02:52 ENE 10 10 Clear CLR 52 7     16%     30.24        
Oct 16 00:52 ENE 10 10 Clear CLR 52 5     15%     30.26        
May 14 21:52 Calm 10 Clear CLR 51 47     86%     30.05 29.89      
May 14 10:52 7 10 Mostly Clear FEW055 60 34     37%     30.06 29.89      
May 13 09:52 Calm 10 Clear   54 39     57%     30.06 29.92      
May 12 18:52 5 10 Cloudy OVC090 53 38     56%     29.98 29.86      
May 11 21:52 7 10 Clear CLR 47 25     42% 44   29.92 29.79      
May 11 17:52 NNE 10 10 Clear CLR 56 20     24%     29.91 29.75      
May 11 15:52 NNE 10 10 Clear CLR 57 17     21%     29.91 29.75      
Jun 12 01:33 SSE 3 1.25 Light Snow and Fog/Mist BKN003 OVC007 33 33     100% 30   29.96   0    
Jun 12 01:18 SSW 3 2.5 Light Snow and Fog/Mist OVC004 33 33     100% 30   29.96   0    
Jun 11 17:08 6 5 Fog/Mist SCT004 BKN013 OVC034 36 35     96% 31   29.93   0    
Jun 11 15:52 W 7 2.5 Light Snow and Fog/Mist FEW010 BKN018 OVC049 36 34     92% 30   29.94 29.91 0    
Jun 11 13:02   10 Mostly Cloudy FEW022 SCT029 BKN050 42 32     67%     29.9        
Jun 11 12:52 SSW 10 10 Clear   42 31     64% 36   29.9 29.84      
Jun 11 09:59 5 10 Cloudy FEW019 BKN028 OVC035 40 33     76% 37            
Jun 11 09:42 S 9 10 Mostly Cloudy FEW020 BKN028 BKN034 39 33     79% 33   29.87        
Jun 11 04:52 5 2.5 Fog/Mist OVC002 38 38     100% 34     29.78      
Jun 11 02:52 S 6 0.75 Fog/Mist VV002 39 39     100% 35     29.79      
Jun 11 00:43 S 7 1.25 Fog/Mist OVC002 40 40     100% 35   29.91        
Jun 10 22:52 S 9 10 Cloudy OVC005 42 41     96% 37   29.93 29.83      
Jun 10 03:00 SSE 11 3 Fog/Mist BKN002 OVC009 44 44     100% 38   29.95        
Jun 10 02:14 SSE 10 1.25 Fog/Mist OVC002 44 44     100% 39   29.97        
Jun 09 21:27 S 9 1.75 Fog/Mist BKN002 BKN006 OVC016 47 46     97% 43   29.99        
Jun 09 18:52 SSW 11 10 Cloudy SCT007 BKN010 OVC017 49 47     93% 44     29.87      
Jun 09 13:52 SW 10 0.25 Clear   48 48     100% 43   30.01 29.91 0    
Jun 09 10:52 SSW 9 0.25 Fog VV002 47 47     100% 43   30 29.91     0
Jun 09 06:35 S 9 0.25 Fog VV002 46 46     100% 41   30.01        
Jun 09 05:52 S 7 0.25 Fog VV001 46 46     100% 42   30.01 29.91      
Jun 09 03:52 S 6 0.25 Fog VV002 46 46     100% 43   30.03 29.94      
Jun 09 02:52 S 7 0.5 Fog VV002 46 46     100% 42   30.04 29.95      
Notice The following observation data may not be complete
Jun 09 02:08   1.5 Fog/Mist OVC002          %              
Jun 09 01:48 SSW 5 0.75 Fog/Mist VV002 46 46     100% 44   30.05        
Jun 08 18:52 S 7 0.25 Fog VV002 48 48     100% 45   30.09 29.99      
Notice The following observation data may not be complete
Jun 08 17:42   1.25 Fog/Mist OVC002          %              
Jun 08 11:52   1.75 Light Rain and Fog/Mist SCT006 BKN010 OVC021 43 42     97%     30.12 30.02 0    
Notice The following observation data may not be complete
Jun 08 11:20   2 Rain and Fog/Mist FEW005 SCT012 OVC021          %         0    
Jun 07 23:52 SE 7 10 Clear CLR 51 39     63%       29.83      
Jun 07 22:52 SE 7 10 Clear CLR 51 40     65%     30.05 29.85      
Jun 07 20:52 S 8 10 Clear CLR 57 38     49%     30.04 29.82      
Jun 05 21:52 Calm 10 Clear CLR 59 32     36%       29.87